Terminal Aerodrome Forecast
Issued by NWS

Home | Current Version | Previous Version | Text Only | Print | Product List | Glossary On
Versions: 1 2 3 4 5 6 7 8 9 10 11 12 13 14 15 16 17 18 19 20 21 22 23 24 25 26 27 28 29 30 31 32
489
FTUS45 KBOU 071137
TAFAPA
TAF
KAPA 071137Z 0712/0812 33014KT P6SM FEW150 FEW220
     FM071300 VRB05KT P6SM FEW220
     FM071600 36009KT P6SM SCT200
     FM072100 11007KT P6SM FEW140 SCT200
     FM080300 18009KT P6SM SCT200=

USA.gov is the U.S. government's official web portal to all federal, state and local government web resources and services.